Regional Weather Roundup
Issued by NWS

Home | Current Version | Previous Version | Text Only | Print | Product List | Glossary On
Versions: 1 2 3 4 5 6 7 8 9 10 11 12 13 14 15 16 17 18 19 20 21 22 23 24 25 26 27 28 29 30 31 32 33 34 35 36 37 38 39 40 41 42 43 44 45 46 47 48 49 50
000
ASUS43 KFSD 190610
RWRSD

WEATHER ROUNDUP FOR SOUTH DAKOTA
NATIONAL WEATHER SERVICE SIOUX FALLS SD
100 AM CDT THU OCT 19 2017

NOTE: "FAIR" INDICATES FEW OR NO CLOUDS BELOW 12,000 FEET WITH NO
SIGNIFICANT WEATHER AND/OR OBSTRUCTIONS TO VISIBILITY.


SDZ001>005-009-010-012>017-190700-
NORTHWEST AND NORTH CENTRAL SOUTH DAKOTA

CITY           SKY/WX    TMP DP  RH WIND       PRES   REMARKS
BUFFALO          N/A     46  25  43 S6        29.82F
FAITH            N/A     45  29  53 S18       29.90F
MOBRIDGE       CLOUDY    47  37  68 SE10      29.92F
$$

SDZ012>016-024>037-041>051-057-063-072>074-190700-
SOUTHWEST AND SOUTH CENTRAL SOUTH DAKOTA

CITY           SKY/WX    TMP DP  RH WIND       PRES   REMARKS
RAPID CTY ARPT CLOUDY    48  30  49 SE6       29.94F
PIERRE         CLOUDY    45  29  53 SE12      29.97F
CUSTER         CLOUDY    50  22  33 W7        30.03F
ELLSWORTH AFB  CLOUDY    52  30  42 S13       29.92F
PHILIP         CLOUDY    45  33  63 CALM      29.95F
PINE RIDGE     CLOUDY    57  31  37 S22G32    30.00F
SPEARFISH      FAIR      66  19  16 SW20G28   29.90F
WINNER         FAIR      52  34  50 SE12      30.00F
$$

SDZ004>011-016>023-039-040-190700-
NORTHEAST SOUTH DAKOTA

CITY           SKY/WX    TMP DP  RH WIND       PRES   REMARKS
ABERDEEN       CLOUDY    36  30  79 SW8       30.00S
WATERTOWN      CLOUDY    39  33  79 SW9       30.01F
BROOKINGS      CLOUDY    41  33  73 SE6       30.05F
SISSETON         N/A     50  30  46 SW8       29.98S
$$

SDZ017-020-022-023-036>040-048>070-190700-
SOUTHEAST SOUTH DAKOTA

CITY           SKY/WX    TMP DP  RH WIND       PRES   REMARKS
SIOUX FALLS    CLOUDY    41  38  89 CALM      30.06S
HURON          CLOUDY    43  32  65 S6        30.02F
CHAMBERLAIN    CLOUDY    43  36  77 SE3       30.02F
MITCHELL       CLOUDY    46  35  65 S5        30.04F
YANKTON        CLOUDY    45  35  68 CALM      30.06S
$$

ABBREVIATIONS USED IN REMARKS
   TC - TEMPERATURE IN CELSIUS
  WCI - WIND CHILL INDEX
   HX - HEAT INDEX
  VSB - VISIBILITY




USA.gov is the U.S. government's official web portal to all federal, state and local government web resources and services.